This demonstration page uses our WeatherBlox Daily Observations layout. Learn more.

38.88101, -77.10428

Hourly Observations for February 14, 2018

Temp ( °F °C ) Dew Point ( °F °C ) Humidity (%) Winds ( mph kmh ) Pressure ( in mb ) Visibility ( mi km ) Precip ( " mm )
12:52 am 00:52 Mostly Cloudy 36 2.2 30 -1.1 79 79 S 7 11 30.55 1035 10 16.0934 0 0
1:52 am 01:52 Mostly Cloudy 35 1.7 30 -1.1 82 82 S 7 11 30.53 1034 10 16.0934 0 0
2:52 am 02:52 Cloudy 35 1.7 30 -1.1 82 82 SSW 3 6 30.5 1033 10 16.0934 0 0
3:52 am 03:52 Mostly Cloudy 35 1.7 31 -0.6 85 85 S 8 13 30.45 1031 10 16.0934 0 0
4:52 am 04:52 Mostly Cloudy 35 1.7 31 -0.6 85 85 SSW 5 7 30.46 1032 10 16.0934 0 0
5:52 am 05:52 Cloudy 35 1.7 31 -0.6 85 85 S 6 9 30.44 1031 10 16.0934 0 0
6:52 am 06:52 Mostly Cloudy 35 1.7 32 0 89 89 S 8 13 30.42 1030 10 16.0934 0 0
7:52 am 07:52 Mostly Cloudy 36 2.2 32 0 86 86 SSW 9 15 30.42 1030 10 16.0934 0 0
8:52 am 08:52 Mostly Cloudy 38 3.3 34 1.1 86 86 S 7 11 30.4 1030 10 16.0934 0 0
9:52 am 09:52 Mostly Cloudy 40 4.4 34 1.1 79 79 SSW 10 17 30.41 1030 10 16.0934 0 0
10:52 am 10:52 Cloudy 42 5.6 35 1.7 76 76 S 9 15 30.38 1029 10 16.0934 0 0
11:52 am 11:52 Mostly Cloudy 43 6.1 36 2.2 76 76 S 13 20 30.35 1028 10 16.0934 0 0
12:52 pm 12:52 Mostly Cloudy 46 7.8 36 2.2 68 68 SSW 8 13 30.32 1027 10 16.0934 0 0
1:52 pm 13:52 Mostly Cloudy 47 8.3 38 3.3 71 71 S 10 17 30.28 1025 10 16.0934 0 0
2:52 pm 14:52 Mostly Cloudy 51 10.6 39 3.9 64 64 S 7 11 30.26 1025 10 16.0934 0 0
3:52 pm 15:52 Mostly Cloudy 53 11.7 40 4.4 61 61 SSE 6 9 30.23 1024 10 16.0934 0 0
4:52 pm 16:52 Mostly Cloudy 52 11.1 40 4.4 64 64 SSE 3 6 30.2 1023 10 16.0934 0 0
5:52 pm 17:52 Mostly Cloudy 49 9.4 40 4.4 71 71 SSE 3 6 30.18 1022 10 16.0934 0 0
6:52 pm 18:52 Mostly Cloudy 51 10.6 41 5 69 69 Calm 30.17 1022 10 16.0934 0 0
7:52 pm 19:52 Mostly Cloudy 50 10 42 5.6 74 74 S 5 7 30.15 1021 10 16.0934 0 0
8:52 pm 20:52 Mostly Cloudy 50 10 43 6.1 77 77 S 8 13 30.14 1021 10 16.0934 0 0
9:52 pm 21:52 Cloudy 50 10 44 6.7 80 80 SSW 10 17 30.11 1020 10 16.0934 0 0.0254
10:52 pm 22:52 Cloudy 53 11.7 46 7.8 77 77 SSW 7 11 30.1 1019 10 16.0934 0 0
11:52 pm 23:52 Cloudy with Light Rain 49 9.4 46 7.8 90 90 S 10 17 30.09 1019 10 16.0934 0.03 0.762

Powered by AerisWeather